Wind_Speed
37 39 40 40 41 43 44 45 45 45 45 44 44 42 40 40 42 42 41 40 40 38 38 39 38 37 37 38 38 38 37 36 36 36 36 36 35 35 35 34 34 33 32 31
33 33 34 35 38 40 41 41 41 42 43 43 43 42 40 40 41 42 42 41 41 40 40 40 41 41 40 40 40 40 40 39 39 38 38 39 40 40 39 38 37 35 34 34
29 30 30 32 33 35 36 37 37 38 40 41 42 40 38 37 39 40 41 41 42 42 42 43 43 43 43 43 43 43 43 43 43 42 42 42 43 42 41 40 39 38 38 38
30 29 29 29 29 30 32 32 32 33 34 35 37 37 32 34 35 36 38 39 40 42 43 44 45 46 46 46 47 47 47 47 47 47 47 46 45 45 44 43 44 43 43 41
27 26 26 26 26 27 27 26 27 28 29 31 31 35 29 29 31 33 35 38 40 42 44 45 47 48 50 50 51 51 52 51 52 52 52 51 49 48 47 47 47 46 45 44
26 25 24 24 24 24 23 23 23 24 25 26 25 30 29 27 30 33 36 38 41 43 45 47 49 51 52 54 55 56 56 56 57 57 56 56 54 52 51 50 49 49 48 47
23 23 22 22 22 21 21 20 21 21 22 22 23 26 27 29 31 34 37 40 43 45 47 49 52 53 55 56 57 58 59 59 60 60 60 59 58 56 54 52 52 52 51 49
22 22 21 21 20 19 19 19 19 19 20 20 22 24 26 30 33 35 38 40 43 46 48 51 53 55 56 58 58 59 60 60 60 61 61 61 61 59 58 55 54 53 52 51
23 22 21 20 19 18 18 17 17 18 19 21 22 24 26 30 33 36 38 41 43 46 48 50 52 54 56 57 58 58 58 59 59 59 60 59 59 60 59 57 56 54 53 52
22 21 20 19 18 17 16 16 17 18 20 22 23 23 26 28 31 34 36 39 42 44 46 48 50 52 53 54 56 57 57 56 57 58 58 58 57 57 58 57 55 54 53 52
21 20 19 18 17 16 16 16 17 19 21 23 23 21 23 26 29 31 34 37 39 41 44 47 50 52 53 53 53 53 54 54 54 55 56 56 56 56 56 56 54 53 52 51
20 19 18 17 16 15 15 16 17 19 20 21 21 18 21 24 27 29 31 34 37 41 44 47 50 52 52 51 49 49 50 50 51 52 53 53 53 53 53 53 52 51 50 49
19 18 17 17 15 15 15 16 17 18 18 18 18 16 21 22 24 26 29 33 36 39 42 45 46 46 45 44 42 42 43 44 46 47 49 50 50 49 49 49 49 48 47 46
18 17 16 15 14 14 14 15 16 16 16 16 15 14 17 19 21 24 28 31 34 37 39 39 39 36 34 32 32 33 35 38 40 42 43 45 46 45 45 45 45 44 43 41
16 16 15 14 14 13 14 14 15 14 14 13 11 13 14 17 20 23 26 29 31 33 34 33 29 26 23 21 21 22 25 29 31 33 36 38 39 40 40 40 40 39 37 37
16 15 14 14 13 12 12 13 12 12 11 9 9 10 13 16 19 22 25 26 28 29 29 27 23 18 14 12 11 13 16 19 24 27 30 32 33 34 35 34 33 33 33 33
15 14 14 13 12 11 10 11 10 9 8 8 8 10 12 15 18 21 22 24 25 25 24 23 19 14 9 5 4 7 11 14 19 23 25 26 28 29 29 29 28 28 29 29
14 14 13 12 11 10 9 9 8 7 7 7 8 10 12 14 17 19 20 22 23 22 21 20 16 12 7 3 3 7 11 13 16 19 21 22 24 25 25 25 25 25 25 25
14 13 13 12 11 9 8 8 7 7 7 7 8 10 11 13 15 17 18 19 20 19 19 17 15 13 10 7 7 9 11 14 17 18 20 21 21 22 22 22 22 22 23 25
14 13 13 12 11 10 9 9 8 7 7 7 8 9 11 12 13 15 16 16 16 16 15 15 14 14 12 11 11 13 14 16 16 17 18 19 18 18 19 18 20 22 24 26
14 13 13 13 12 10 10 9 8 7 7 7 8 9 10 11 12 13 13 13 13 13 13 12 12 12 12 12 12 13 14 14 13 14 13 14 14 14 15 16 19 21 23 26
14 14 14 13 12 11 10 9 8 7 6 7 7 9 9 10 11 12 11 11 11 11 10 10 9 9 9 9 9 9 10 10 9 9 9 10 11 13 16 18 19 21 24 27
14 15 15 14 13 12 11 9 8 8 7 7 7 8 8 9 10 10 10 10 9 9 9 8 8 8 8 7 6 6 5 5 6 6 7 8 9 11 13 15 18 21 24 28
15 15 16 16 15 14 13 11 10 9 8 7 7 7 7 8 9 9 9 9 8 8 7 7 6 6 6 6 5 5 4 3 2 2 3 6 8 11 13 17 20 22 25 28
17 17 17 17 17 16 15 13 11 10 9 8 8 8 8 8 9 9 9 9 8 8 7 6 5 5 4 4 4 3 2 2 3 4 6 9 11 14 17 19 22 24 27 30
19 18 18 18 18 17 16 14 12 11 10 10 10 9 8 8 9 9 9 8 8 7 6 6 5 5 5 4 4 4 5 5 7 9 11 13 15 17 19 22 24 26 29 31
Wind_Direction
219 222 224 227 228 230 232 233 236 237 239 240 241 241 242 242 244 246 247 249 249 250 250 250 250 248 246 246 247 248 249 250 251 252 254 256 257 257 257 259 261 263 265 266
216 220 222 225 227 230 232 234 237 240 240 241 241 242 243 244 245 248 249 249 249 249 250 251 251 250 249 248 248 249 250 251 252 252 253 254 256 256 258 259 261 264 266 266
215 217 220 223 226 229 232 234 236 239 242 243 243 242 244 246 247 248 250 251 251 251 250 251 251 252 252 252 252 252 252 252 252 253 253 254 256 258 259 261 262 263 263 264
210 213 217 220 224 227 230 232 235 238 241 244 244 243 241 247 249 250 252 253 254 253 253 253 254 254 255 255 255 254 254 254 254 254 255 256 257 258 260 259 259 259 260 262
209 212 215 219 222 225 228 230 232 236 240 244 247 248 241 246 249 251 252 254 255 256 257 257 257 258 258 258 258 258 257 257 256 256 256 257 257 257 257 258 258 259 259 260
205 209 212 215 218 220 221 224 228 233 237 241 243 251 251 251 252 254 255 256 258 259 260 260 261 261 261 261 260 260 259 258 257 256 256 256 256 256 256 256 257 257 258 258
201 204 207 209 211 211 213 217 224 230 236 242 244 251 259 262 262 262 262 263 263 263 263 263 263 263 263 262 262 261 259 258 256 255 255 255 255 255 254 254 254 255 256 258
197 199 201 202 203 203 207 215 225 233 238 243 250 255 264 270 272 272 271 271 270 269 269 268 267 266 265 264 262 260 258 256 255 254 253 253 252 252 252 252 252 252 254 256
194 196 197 198 200 203 208 219 229 242 247 253 258 264 272 276 278 279 278 278 277 277 275 274 272 270 268 266 263 260 257 255 253 251 250 250 250 250 249 249 249 249 251 253
193 194 197 199 203 209 217 227 239 251 261 265 268 277 283 283 282 282 282 282 282 281 280 278 276 274 270 267 264 260 257 254 251 249 248 247 247 247 247 246 246 247 248 250
194 196 200 206 212 219 228 239 251 261 269 275 280 288 286 285 285 286 288 289 289 288 286 284 282 279 275 271 267 262 258 254 250 247 245 244 243 243 244 243 243 244 246 248
197 200 206 214 221 230 240 251 260 268 274 279 286 291 286 287 291 293 296 297 296 294 293 291 288 284 280 276 270 263 257 253 249 244 241 239 239 239 240 240 240 241 243 246
201 207 214 222 230 240 250 258 264 270 276 282 287 290 289 294 298 301 303 305 304 302 300 297 294 289 283 276 269 261 254 249 245 240 236 235 235 235 236 236 237 238 241 244
205 212 221 230 237 246 253 260 267 274 279 282 285 286 291 300 306 310 313 315 315 313 311 308 303 295 286 276 267 258 249 242 238 235 231 230 230 230 230 231 233 235 238 242
210 218 227 235 239 245 253 260 268 275 279 282 283 292 303 312 318 323 324 325 325 324 322 320 314 303 289 278 267 255 243 234 230 226 222 222 224 225 225 227 229 232 236 241
215 223 231 236 239 244 250 257 265 273 276 282 295 303 318 327 333 334 333 334 335 334 334 332 327 320 302 283 262 242 228 220 216 213 211 213 216 217 219 221 224 229 234 240
217 224 231 237 240 244 249 255 262 268 276 290 308 320 328 332 338 341 342 343 344 345 346 347 345 342 334 305 234 199 195 196 200 200 200 203 206 208 211 215 220 226 233 240
219 226 232 236 241 248 250 253 256 263 277 293 312 325 332 337 340 345 348 350 353 356 358 360 3 7 11 29 141 161 167 172 177 180 184 188 192 198 203 210 216 224 233 241
222 228 229 234 239 241 240 241 246 261 276 293 312 326 333 338 342 347 352 357 360 3 7 13 22 33 48 70 105 132 145 155 162 167 171 178 186 193 202 211 218 227 238 245
224 225 225 230 233 232 230 234 242 257 275 289 308 325 333 336 340 344 351 358 4 9 15 24 35 48 63 81 103 120 132 142 151 158 166 174 184 195 204 213 227 237 244 251
223 221 221 224 224 226 227 232 240 257 272 288 309 324 332 335 340 342 347 353 2 10 18 29 45 56 68 80 98 114 125 134 144 155 165 174 189 205 215 229 241 248 256 264
222 218 218 218 217 221 224 231 244 259 272 290 308 321 328 332 339 342 345 351 359 7 13 23 38 50 60 78 99 113 124 134 147 162 173 188 206 227 239 248 257 262 269 276
222 218 218 217 218 222 228 238 249 259 271 287 304 316 324 331 336 340 343 347 355 1 9 20 34 45 54 77 95 114 126 144 166 189 206 224 241 252 261 269 274 278 281 285
222 221 221 220 221 226 233 242 252 259 267 281 294 305 314 323 330 334 339 340 344 348 354 6 20 33 45 55 72 87 97 107 130 200 245 261 271 280 285 288 290 291 294 296
225 225 224 225 227 230 236 243 250 257 266 276 284 291 299 307 316 321 327 332 334 337 341 350 1 12 23 31 41 50 44 17 335 313 302 297 295 296 297 298 299 300 301 302
229 227 226 226 229 232 237 244 251 259 266 271 274 278 286 295 303 309 313 316 319 323 325 329 337 341 344 348 350 348 341 331 321 313 307 305 304 304 304 304 305 306 307 308
Height
5670 5677 5684 5690 5695 5700 5705 5710 5715 5719 5723 5727 5732 5736 5741 5743 5745 5748 5750 5752 5754 5756 5757 5758 5760 5762 5764 5765 5766 5768 5770 5771 5773 5774 5775 5776 5777 5778 5779 5780 5780 5780 5781 5781
5667 5673 5678 5683 5688 5693 5699 5704 5709 5712 5716 5721 5725 5729 5733 5735 5738 5740 5741 5743 5746 5747 5748 5749 5751 5752 5754 5756 5757 5759 5761 5762 5764 5765 5767 5767 5767 5768 5770 5771 5772 5773 5774 5773
5662 5669 5673 5678 5683 5688 5693 5698 5702 5706 5709 5713 5718 5723 5727 5728 5730 5732 5733 5734 5736 5738 5740 5741 5741 5743 5744 5746 5748 5749 5751 5752 5754 5755 5756 5757 5758 5759 5761 5763 5765 5765 5765 5765
5658 5663 5669 5674 5678 5683 5688 5692 5696 5700 5704 5707 5711 5716 5722 5721 5722 5724 5725 5726 5727 5728 5730 5731 5732 5733 5734 5736 5736 5738 5739 5741 5742 5744 5745 5747 5748 5750 5752 5754 5754 5755 5755 5756
5655 5660 5665 5670 5674 5679 5683 5687 5691 5695 5698 5702 5705 5708 5715 5714 5715 5715 5716 5717 5718 5719 5719 5720 5721 5722 5722 5723 5724 5725 5727 5728 5730 5731 5733 5735 5738 5740 5742 5742 5743 5744 5745 5746
5652 5657 5662 5666 5671 5675 5680 5684 5687 5690 5693 5698 5700 5702 5706 5707 5707 5707 5708 5708 5708 5709 5709 5709 5709 5709 5709 5709 5710 5711 5712 5714 5715 5716 5719 5722 5724 5727 5729 5731 5732 5733 5734 5735
5650 5654 5659 5663 5668 5672 5677 5681 5684 5686 5689 5693 5695 5697 5698 5697 5697 5698 5699 5699 5698 5698 5698 5697 5697 5696 5695 5694 5694 5694 5695 5697 5698 5700 5703 5706 5709 5713 5716 5718 5720 5721 5722 5724
5648 5653 5657 5661 5665 5669 5673 5677 5681 5683 5686 5688 5689 5691 5693 5690 5688 5688 5688 5687 5686 5685 5684 5683 5682 5680 5679 5677 5676 5676 5677 5679 5680 5683 5686 5690 5694 5698 5701 5704 5707 5709 5711 5714
5646 5651 5655 5659 5663 5667 5670 5673 5676 5679 5680 5682 5684 5685 5685 5682 5680 5679 5677 5676 5674 5672 5670 5667 5665 5662 5660 5658 5657 5657 5658 5660 5662 5665 5668 5672 5677 5682 5685 5689 5693 5697 5700 5702
5645 5649 5653 5657 5661 5664 5668 5670 5673 5674 5675 5676 5678 5678 5676 5674 5672 5670 5667 5664 5661 5658 5654 5651 5647 5644 5641 5638 5637 5637 5639 5641 5644 5648 5651 5656 5661 5666 5670 5674 5679 5684 5687 5690
5643 5648 5652 5655 5658 5662 5665 5667 5668 5669 5670 5670 5670 5673 5669 5666 5663 5661 5657 5653 5649 5644 5639 5634 5629 5625 5621 5618 5617 5617 5619 5622 5626 5630 5635 5641 5646 5651 5655 5661 5666 5671 5675 5679
5642 5646 5650 5653 5656 5659 5661 5663 5664 5665 5665 5664 5663 5667 5661 5658 5655 5652 5648 5643 5638 5632 5625 5618 5611 5605 5601 5598 5597 5597 5599 5602 5607 5613 5619 5625 5630 5636 5642 5648 5654 5660 5664 5669
5640 5645 5648 5651 5655 5656 5657 5658 5658 5659 5659 5658 5658 5661 5654 5651 5648 5644 5640 5634 5627 5619 5611 5603 5595 5587 5582 5579 5578 5579 5581 5585 5591 5597 5604 5610 5617 5624 5630 5637 5643 5649 5655 5659
5639 5642 5646 5649 5651 5652 5653 5654 5654 5654 5654 5654 5653 5653 5650 5646 5642 5638 5632 5624 5617 5608 5599 5589 5580 5572 5567 5564 5563 5564 5566 5571 5577 5584 5591 5598 5606 5613 5621 5628 5635 5641 5646 5651
5637 5640 5642 5645 5647 5648 5649 5649 5649 5649 5649 5649 5649 5647 5644 5640 5636 5631 5624 5617 5609 5600 5590 5580 5571 5563 5559 5556 5554 5554 5556 5561 5567 5574 5581 5590 5598 5606 5613 5621 5628 5634 5640 5644
5635 5637 5639 5641 5643 5644 5645 5645 5645 5645 5645 5645 5644 5642 5639 5635 5630 5625 5619 5612 5604 5595 5585 5576 5567 5560 5555 5552 5551 5551 5553 5557 5562 5569 5577 5585 5593 5601 5609 5616 5623 5629 5634 5638
5632 5634 5637 5638 5639 5640 5642 5642 5642 5642 5642 5641 5640 5638 5635 5632 5627 5622 5615 5608 5601 5593 5584 5575 5567 5561 5556 5553 5552 5552 5553 5557 5562 5568 5575 5583 5590 5598 5606 5613 5619 5624 5628 5632
5630 5631 5633 5635 5637 5637 5640 5638 5639 5639 5639 5638 5636 5634 5631 5628 5624 5619 5613 5607 5600 5592 5585 5577 5570 5564 5560 5557 5556 5556 5557 5560 5565 5570 5577 5583 5590 5597 5604 5610 5615 5619 5623 5625
5627 5629 5630 5632 5633 5634 5636 5636 5636 5636 5636 5635 5634 5631 5629 5625 5621 5617 5612 5606 5600 5594 5587 5581 5575 5569 5565 5563 5561 5561 5563 5565 5569 5574 5579 5585 5591 5597 5602 5607 5611 5615 5617 5619
5624 5626 5628 5629 5630 5631 5634 5634 5633 5635 5634 5633 5631 5629 5626 5623 5620 5617 5612 5607 5602 5596 5591 5585 5580 5576 5572 5570 5568 5568 5569 5571 5575 5578 5583 5587 5592 5597 5601 5605 5608 5610 5612 5613
5621 5623 5624 5625 5627 5629 5630 5631 5632 5633 5633 5630 5628 5626 5624 5621 5619 5615 5611 5607 5603 5599 5594 5590 5586 5583 5579 5577 5576 5575 5576 5578 5580 5583 5587 5590 5594 5597 5600 5603 5605 5606 5606 5607
5618 5620 5621 5622 5624 5628 5627 5628 5629 5629 5628 5627 5625 5624 5622 5619 5617 5614 5610 5607 5604 5600 5597 5593 5590 5588 5585 5583 5582 5582 5582 5583 5585 5587 5590 5592 5594 5597 5599 5600 5601 5601 5601 5600
5614 5617 5618 5620 5623 5623 5624 5625 5625 5625 5625 5624 5623 5622 5620 5618 5615 5613 5610 5607 5604 5602 5599 5596 5593 5591 5589 5588 5587 5587 5587 5587 5589 5590 5592 5594 5595 5596 5597 5597 5597 5596 5595 5593
5611 5612 5614 5616 5618 5619 5620 5621 5621 5622 5621 5621 5620 5619 5618 5616 5614 5612 5609 5607 5605 5602 5600 5598 5596 5594 5593 5592 5591 5590 5590 5591 5591 5592 5593 5593 5594 5594 5594 5593 5592 5590 5588 5585
5607 5608 5610 5612 5614 5615 5616 5617 5618 5618 5618 5617 5617 5616 5615 5614 5612 5610 5608 5606 5604 5602 5601 5599 5597 5596 5595 5594 5593 5593 5593 5592 5592 5592 5592 5592 5591 5591 5589 5588 5586 5584 5581 5577
5602 5604 5606 5608 5609 5611 5612 5613 5614 5614 5614 5614 5614 5613 5612 5611 5610 5609 5607 5605 5604 5602 5601 5599 5598 5597 5596 5595 5594 5593 5593 5592 5592 5591 5590 5589 5588 5586 5584 5582 5579 5576 5573 5570